GFSFLT2_sfc_thetae_210.txt.gz
Theta_e
337 338 338 338 337 336 334 333 334 335 335 334 332 331 329 330 329 329 329 330 331 332 331 330 329 328 330
338 332 333 335 335 335 334 332 330 331 331 331 330 329 330 330 330 330 330 331 332 332 332 330 328 328 329
335 331 330 331 332 331 331 327 328 336 334 332 327 328 329 330 332 332 332 333 332 330 330 328 326 328 327
333 335 336 336 337 338 338 337 338 336 336 332 327 325 327 327 329 331 332 331 328 330 330 328 329 329 328
336 336 337 337 338 338 338 338 338 337 338 337 336 336 336 326 333 332 332 331 331 331 330 330 329 329 329
338 336 337 337 338 337 337 336 337 335 336 335 334 335 335 335 334 333 333 333 332 331 331 330 330 330 329
337 337 337 336 336 336 336 335 335 335 335 335 335 335 335 335 334 333 333 333 332 332 331 331 330 331 331
334 335 335 335 335 336 336 336 335 336 336 336 336 336 336 336 335 335 334 333 333 333 332 332 331 331 331
332 333 334 336 335 336 337 337 337 337 337 337 337 337 337 338 336 336 335 335 333 333 332 332 332 332 332
332 334 335 336 337 338 338 338 338 337 338 337 337 337 338 336 335 334 334 331 331 330 328 329 331 332 330
335 335 336 337 337 338 338 338 337 337 336 336 336 334 334 332 333 331 330 330 329 329 328 328 327 326 327
336 336 337 337 337 338 337 336 334 332 330 331 330 329 330 330 330 329 327 328 326 326 323 321 323 324 325
334 333 333 334 335 331 327 319 319 319 318 321 322 322 323 323 322 322 322 321 321 322 319 319 320 321 322
333 333 335 335 326 318 315 312 312 314 316 316 317 317 318 318 319 319 319 318 319 320 316 313 311 314 319
325 330 330 326 319 313 310 309 310 312 312 312 313 314 315 316 316 316 316 315 312 316 317 312 308 306 311
314 314 312 311 304 304 305 308 308 308 307 307 308 309 309 310 310 311 312 313 313 310 313 314 313 312 307

GFSFLT2_sfc_thetae_216.txt.gz
Theta_e
336 336 337 337 337 336 336 336 336 336 334 332 332 331 330 330 330 330 331 331 332 333 333 332 330 328 324
332 331 332 334 334 334 332 330 330 331 331 330 328 330 330 331 331 332 332 332 333 333 333 331 328 327 323
332 328 328 330 330 330 328 326 325 327 327 325 326 329 330 330 330 331 333 333 332 330 330 329 327 323 321
329 327 329 331 330 331 332 328 330 330 329 328 324 327 329 329 331 333 333 331 327 325 325 326 324 323 322
327 327 330 330 332 331 331 331 330 330 328 328 329 327 327 321 327 329 329 327 327 326 326 325 325 324 323
330 329 330 330 330 329 330 331 328 328 328 328 327 327 327 328 327 328 328 328 328 330 329 326 326 325 324
331 330 330 329 329 329 329 330 328 327 327 329 328 329 330 331 330 330 330 330 331 330 330 330 330 329 329
329 330 329 329 329 329 328 328 330 329 330 330 330 331 331 332 332 331 330 329 329 329 329 330 329 328 330
329 329 328 329 329 328 330 331 332 333 332 332 332 332 332 331 331 330 330 330 328 329 326 326 325 328 327
327 327 328 329 329 330 331 333 334 334 334 332 332 333 332 330 329 329 326 324 321 320 321 320 320 321 321
327 328 329 330 331 332 327 325 323 321 322 322 326 323 321 321 321 320 318 317 315 316 317 316 316 317 317
329 329 330 330 319 316 315 315 316 316 316 316 316 316 316 316 315 315 314 315 314 314 315 315 313 313 315
329 329 329 319 313 312 312 313 312 312 311 311 313 313 313 313 312 312 311 311 310 311 309 309 309 311 311
330 326 318 312 310 310 309 308 307 307 308 308 308 307 307 308 307 306 306 306 309 309 305 305 301 307 309
321 315 311 311 309 307 305 302 300 301 301 302 302 303 304 304 302 303 303 303 302 306 307 306 300 297 302
310 309 307 304 302 302 301 300 297 297 297 298 298 298 298 299 298 298 299 299 299 298 301 302 301 301 297

GFSFLT2_sfc_thetae_219.txt.gz
Theta_e
335 336 337 337 336 337 336 336 336 335 333 332 333 332 331 331 331 331 331 332 332 333 333 333 330 328 323
330 329 331 333 334 333 332 330 330 330 330 329 327 330 330 331 331 332 332 333 333 333 333 331 328 327 321
329 326 327 329 329 328 327 325 324 325 326 325 325 328 330 330 330 331 333 334 332 329 329 328 326 323 320
329 327 327 329 328 327 327 326 326 327 327 327 322 325 328 328 331 333 333 331 327 324 324 325 324 323 321
324 325 326 327 329 330 329 329 328 328 326 326 326 325 324 321 325 328 327 327 325 326 327 324 324 325 325
325 325 327 327 327 327 328 329 326 326 326 325 324 325 325 325 325 328 328 328 328 329 328 327 327 325 325
327 327 329 328 327 327 327 328 326 324 324 326 326 329 330 331 330 328 329 329 328 329 329 328 328 327 327
329 329 328 327 327 326 325 326 327 327 327 330 331 331 331 332 331 329 328 326 327 325 324 325 325 325 324
327 329 327 327 327 326 327 328 330 332 332 332 332 331 331 330 327 329 327 322 320 320 319 321 319 320 320
326 326 326 326 326 330 330 326 321 322 323 328 328 324 323 320 319 317 316 315 314 314 314 314 314 315 315
325 325 325 324 320 317 317 316 316 317 318 318 317 316 316 315 314 314 312 312 311 311 312 312 312 310 312
325 325 321 316 314 314 312 311 312 312 313 314 312 311 313 312 310 310 309 310 310 308 311 311 309 309 311
326 326 319 312 311 309 307 307 307 307 308 308 308 308 308 305 304 305 306 306 307 307 306 305 307 308 306
324 319 313 310 307 304 302 300 300 301 301 302 302 303 302 302 299 300 300 301 303 303 300 301 301 303 304
313 312 310 309 306 300 297 296 296 297 297 298 298 298 298 298 297 296 297 296 298 300 298 298 294 293 297
308 307 305 301 297 295 295 295 294 294 294 295 295 295 295 295 296 296 296 294 296 292 296 296 295 293 291

GFSFLT2_sfc_thetae_222.txt.gz
Theta_e
335 336 337 338 338 337 336 336 335 334 333 332 332 331 331 331 331 331 331 332 332 333 333 333 330 328 322
329 330 331 333 334 335 334 332 330 330 329 328 327 330 330 330 330 332 332 332 332 332 332 330 328 327 320
327 325 327 328 329 328 326 325 324 324 325 324 325 328 330 330 330 331 333 334 331 329 328 327 326 323 321
329 324 326 327 326 325 324 324 324 325 325 325 321 324 327 328 330 333 334 331 327 324 323 324 323 324 321
324 324 324 325 325 325 326 326 326 326 324 324 324 324 324 320 324 326 327 325 325 324 325 324 324 325 322
320 323 325 325 325 325 326 327 325 324 324 324 323 323 324 327 326 325 326 330 329 328 327 326 327 326 324
322 323 325 325 325 326 326 327 325 323 323 324 326 329 330 331 330 327 326 325 324 324 323 322 323 323 323
325 326 328 325 325 325 325 325 325 325 325 331 332 331 330 331 328 325 324 321 319 319 318 319 318 317 318
328 329 327 325 326 323 326 329 328 328 332 331 327 324 325 323 320 317 316 315 314 315 313 315 314 314 313
325 327 325 325 325 321 319 318 318 319 321 320 319 318 319 315 314 313 312 311 310 309 309 310 310 310 311
324 323 319 317 315 314 313 313 313 315 316 315 314 314 312 310 308 309 308 308 306 306 307 309 307 307 308
322 317 315 313 310 309 308 308 309 309 310 310 309 309 308 306 304 303 304 306 305 302 306 306 305 307 303
322 319 314 309 305 302 301 301 302 302 303 304 303 301 303 300 299 298 299 302 303 299 302 303 305 305 300
319 314 311 305 300 298 298 297 298 298 298 298 298 297 296 298 297 297 296 299 298 297 293 298 297 298 299
312 309 305 302 299 295 294 294 295 296 296 296 296 296 296 297 295 295 294 294 294 293 293 293 288 289 291
310 309 304 298 292 293 293 294 293 294 294 294 294 293 294 295 294 292 293 293 293 289 292 293 292 290 286